| time (UTC) | temp F | wind direction | speed MPH | gust MPH | rain 1hr in | rain 24hr in | rain mn in | humidity % | barometer mb |
| 20260510220041 | 96 | 155 | 5.0 | 11.0 | 0.00 | 0.00 | 0.00 | 7 | 1015.3 |
| 20260510210043 | 96 | 131 | 2.0 | 8.0 | 0.00 | 0.00 | 0.00 | 8 | 1015.9 |
| 20260510200038 | 95 | 175 | 2.0 | 6.0 | 0.00 | 0.00 | 0.00 | 8 | 1016.7 |
| 20260510190049 | 94 | 259 | 2.0 | 7.0 | 0.00 | 0.00 | 0.00 | 7 | 1017.4 |
| 20260510180045 | 92 | 198 | 3.0 | 8.0 | 0.00 | 0.00 | 0.00 | 9 | 1018.2 |
| 20260510170057 | 89 | 205 | 2.0 | 7.0 | 0.00 | 0.00 | 0.00 | 10 | 1018.4 |
| 20260510160051 | 83 | 344 | 1.0 | 4.0 | 0.00 | 0.00 | 0.00 | 16 | 1018.0 |
| 20260510150104 | 74 | 5 | 0.0 | 3.0 | 0.00 | 0.00 | 0.00 | 21 | 1017.8 |
| 20260510140054 | 63 | 75 | 2.0 | 4.0 | 0.00 | 0.00 | 0.00 | 36 | 1017.3 |
| 20260510130129 | 56 | 113 | 2.0 | 3.0 | 0.00 | 0.00 | 0.00 | 33 | 1016.3 |
| 20260510120119 | 58 | 113 | 0.0 | 6.0 | 0.00 | 0.00 | 0.00 | 29 | 1015.8 |
| 20260510110130 | 66 | 46 | 1.0 | 3.0 | 0.00 | 0.00 | 0.00 | 18 | 1015.1 |
| 20260510100120 | 68 | 28 | 4.0 | 6.0 | 0.00 | 0.00 | 0.00 | 18 | 1014.5 |
| 20260510090117 | 68 | 347 | 1.0 | 6.0 | 0.00 | 0.00 | 0.00 | 19 | 1014.6 |
| 20260510080119 | 70 | 74 | 3.0 | 7.0 | 0.00 | 0.00 | 0.00 | 16 | 1014.7 |
| 20260510070031 | 67 | 92 | 5.0 | 8.0 | 0.00 | 0.00 | 0.00 | 20 | 1014.6 |
| 20260510060037 | 69 | 87 | 4.0 | 8.0 | 0.00 | 0.00 | 0.00 | 20 | 1014.6 |
| 20260510050042 | 73 | 62 | 2.0 | 6.0 | 0.00 | 0.00 | 0.00 | 16 | 1014.4 |
| 20260510040047 | 67 | 84 | 3.0 | 5.0 | 0.00 | 0.00 | 0.00 | 27 | 1014.2 |
| 20260510030038 | 71 | 281 | 0.0 | 0.0 | 0.00 | 0.00 | 0.00 | 31 | 1013.6 |
| 20260510020046 | 81 | 283 | 0.0 | 0.0 | 0.00 | 0.00 | 0.00 | 22 | 1013.2 |
| 20260510010047 | 93 | 267 | 0.0 | 0.0 | 0.00 | 0.00 | 0.00 | 18 | 1013.2 |
| 20260510000059 | 93 | 76 | 1.0 | 9.0 | 0.00 | 0.00 | 0.00 | 7 | 1013.4 |
| 20260509230059 | 93 | 225 | 3.0 | 10.0 | 0.00 | 0.00 | 0.00 | 6 | 1013.5 |